Year,Month,Day,Hour,Minute,Value (Times are PST for temperature in C)
2012,11,20,00,00,5.80
2012,11,20,00,01,5.80
2012,11,20,00,02,5.80
2012,11,20,00,03,5.80
2012,11,20,00,04,5.80
2012,11,20,00,05,5.80
2012,11,20,00,06,5.80
2012,11,20,00,07,5.80
2012,11,20,00,08,5.80
2012,11,20,00,09,5.80
2012,11,20,00,10,5.80
2012,11,20,00,11,5.80
2012,11,20,00,12,5.80
2012,11,20,00,13,5.80
2012,11,20,00,14,5.80
2012,11,20,00,15,5.80
2012,11,20,00,16,5.80
2012,11,20,00,17,5.80
2012,11,20,00,18,5.80
2012,11,20,00,19,5.80
2012,11,20,00,20,5.80
2012,11,20,00,21,5.70
2012,11,20,00,22,5.70
2012,11,20,00,23,5.70
2012,11,20,00,24,5.70
2012,11,20,00,25,5.70
2012,11,20,00,26,5.70
2012,11,20,00,27,5.70
2012,11,20,00,28,5.70
2012,11,20,00,29,5.70
2012,11,20,00,30,5.70
2012,11,20,00,31,5.70
2012,11,20,00,32,5.70
2012,11,20,00,33,5.70
2012,11,20,00,34,5.70
2012,11,20,00,35,5.70
2012,11,20,00,36,5.70
2012,11,20,00,37,5.70
2012,11,20,00,38,5.70
2012,11,20,00,39,5.70
2012,11,20,00,40,5.80
2012,11,20,00,41,5.80
2012,11,20,00,42,5.80
2012,11,20,00,43,5.90
2012,11,20,00,44,5.90
2012,11,20,00,45,5.90
2012,11,20,00,46,5.90
2012,11,20,00,47,5.90
2012,11,20,00,48,6.00
2012,11,20,00,49,6.00
2012,11,20,00,50,6.00
2012,11,20,00,51,6.00
2012,11,20,00,52,6.00
2012,11,20,00,53,6.00
2012,11,20,00,54,6.10
2012,11,20,00,55,6.10
2012,11,20,00,56,6.20
2012,11,20,00,57,6.20
2012,11,20,00,58,6.20
2012,11,20,00,59,6.30
2012,11,20,01,00,6.30
2012,11,20,01,01,6.40
2012,11,20,01,02,6.50
2012,11,20,01,03,6.60
2012,11,20,01,04,6.60
2012,11,20,01,05,6.70
2012,11,20,01,06,6.70
2012,11,20,01,07,6.80
2012,11,20,01,08,6.80
2012,11,20,01,09,6.90
2012,11,20,01,10,6.90
2012,11,20,01,11,7.00
2012,11,20,01,12,7.00
2012,11,20,01,13,7.10
2012,11,20,01,14,7.10
2012,11,20,01,15,7.10
2012,11,20,01,16,7.20
2012,11,20,01,17,7.20
2012,11,20,01,18,7.30
2012,11,20,01,19,7.30
2012,11,20,01,20,7.30
2012,11,20,01,21,7.30
2012,11,20,01,22,7.30
2012,11,20,01,23,7.30
2012,11,20,01,24,7.30
2012,11,20,01,25,7.30
2012,11,20,01,26,7.40
2012,11,20,01,27,7.40
2012,11,20,01,28,7.40
2012,11,20,01,29,7.40
2012,11,20,01,30,7.40
2012,11,20,01,31,7.50
2012,11,20,01,32,7.50
2012,11,20,01,33,7.50
2012,11,20,01,34,7.50
2012,11,20,01,35,7.60
2012,11,20,01,36,7.60
2012,11,20,01,37,7.60
2012,11,20,01,38,7.60
2012,11,20,01,39,7.60
2012,11,20,01,40,7.60
2012,11,20,01,41,7.60
2012,11,20,01,42,7.60
2012,11,20,01,43,7.60
2012,11,20,01,44,7.60
2012,11,20,01,45,7.60
2012,11,20,01,46,7.60
2012,11,20,01,47,7.60
2012,11,20,01,48,7.70
2012,11,20,01,49,7.70
2012,11,20,01,50,7.70
2012,11,20,01,51,7.70
2012,11,20,01,52,7.70
2012,11,20,01,53,7.70
2012,11,20,01,54,7.70
2012,11,20,01,55,7.70
2012,11,20,01,56,7.70
2012,11,20,01,57,7.60
2012,11,20,01,58,7.60
2012,11,20,01,59,7.60
2012,11,20,02,00,7.60
2012,11,20,02,01,7.60
2012,11,20,02,02,7.60
2012,11,20,02,03,7.60
2012,11,20,02,04,7.60
2012,11,20,02,05,7.60
2012,11,20,02,06,7.60
2012,11,20,02,07,7.60
2012,11,20,02,08,7.60
2012,11,20,02,09,7.60
2012,11,20,02,10,7.60
2012,11,20,02,11,7.60
2012,11,20,02,12,7.60
2012,11,20,02,13,7.60
2012,11,20,02,14,7.70
2012,11,20,02,15,7.70
2012,11,20,02,16,7.70
2012,11,20,02,17,7.70
2012,11,20,02,18,7.70
2012,11,20,02,19,7.70
2012,11,20,02,20,7.70
2012,11,20,02,21,7.70
2012,11,20,02,22,7.70
2012,11,20,02,23,7.80
2012,11,20,02,24,7.80
2012,11,20,02,25,7.80
2012,11,20,02,26,7.80
2012,11,20,02,27,7.80
2012,11,20,02,28,7.80
2012,11,20,02,29,7.80
2012,11,20,02,30,7.80
2012,11,20,02,31,7.70
2012,11,20,02,32,7.70
2012,11,20,02,33,7.70
2012,11,20,02,34,7.70
2012,11,20,02,35,7.70
2012,11,20,02,36,7.70
2012,11,20,02,37,7.70
2012,11,20,02,38,7.70
2012,11,20,02,39,7.70
2012,11,20,02,40,7.70
2012,11,20,02,41,7.70
2012,11,20,02,42,7.70
2012,11,20,02,43,7.70
2012,11,20,02,44,7.70
2012,11,20,02,45,7.70
2012,11,20,02,46,7.70
2012,11,20,02,47,7.70
2012,11,20,02,48,7.70
2012,11,20,02,49,7.70
2012,11,20,02,50,7.70
2012,11,20,02,51,7.70
2012,11,20,02,52,7.60
2012,11,20,02,53,7.60
2012,11,20,02,54,7.60
2012,11,20,02,55,7.60
2012,11,20,02,56,7.60
2012,11,20,02,57,7.60
2012,11,20,02,58,7.60
2012,11,20,02,59,7.60
2012,11,20,03,00,7.60
2012,11,20,03,01,7.60
2012,11,20,03,02,7.60
2012,11,20,03,03,7.60
2012,11,20,03,04,7.60
2012,11,20,03,05,7.60
2012,11,20,03,06,7.60
2012,11,20,03,07,7.60
2012,11,20,03,08,7.60
2012,11,20,03,09,7.60
2012,11,20,03,10,7.60
2012,11,20,03,11,7.60
2012,11,20,03,12,7.60
2012,11,20,03,13,7.60
2012,11,20,03,14,7.60
2012,11,20,03,15,7.60
2012,11,20,03,16,7.60
2012,11,20,03,17,7.60
2012,11,20,03,18,7.60
2012,11,20,03,19,7.60
2012,11,20,03,20,7.50
2012,11,20,03,21,7.50
2012,11,20,03,22,7.50
2012,11,20,03,23,7.50
2012,11,20,03,24,7.50
2012,11,20,03,25,7.50
2012,11,20,03,26,7.50
2012,11,20,03,27,7.50
2012,11,20,03,28,7.50
2012,11,20,03,29,7.40
2012,11,20,03,30,7.40
2012,11,20,03,31,7.40
2012,11,20,03,32,7.40
2012,11,20,03,33,7.40
2012,11,20,03,34,7.40
2012,11,20,03,35,7.40
2012,11,20,03,36,7.40
2012,11,20,03,37,7.40
2012,11,20,03,38,7.40
2012,11,20,03,39,7.40
2012,11,20,03,40,7.40
2012,11,20,03,41,7.40
2012,11,20,03,42,7.30
2012,11,20,03,43,7.30
2012,11,20,03,44,7.30
2012,11,20,03,45,7.30
2012,11,20,03,46,7.30
2012,11,20,03,47,7.30
2012,11,20,03,48,7.30
2012,11,20,03,49,7.30
2012,11,20,03,50,7.30
2012,11,20,03,51,7.30
2012,11,20,03,52,7.30
2012,11,20,03,53,7.20
2012,11,20,03,54,7.20
2012,11,20,03,55,7.20
2012,11,20,03,56,7.20
2012,11,20,03,57,7.20
2012,11,20,03,58,7.20
2012,11,20,03,59,7.20
2012,11,20,04,00,7.20
2012,11,20,04,01,7.20
2012,11,20,04,02,7.10
2012,11,20,04,03,7.10
2012,11,20,04,04,7.10
2012,11,20,04,05,7.10
2012,11,20,04,06,7.10
2012,11,20,04,07,7.10
2012,11,20,04,08,7.10
2012,11,20,04,09,7.10
2012,11,20,04,10,7.10
2012,11,20,04,11,7.00
2012,11,20,04,12,7.00
2012,11,20,04,13,7.00
2012,11,20,04,14,7.00
2012,11,20,04,15,6.90
2012,11,20,04,16,6.90
2012,11,20,04,17,6.90
2012,11,20,04,18,6.90
2012,11,20,04,19,6.90
2012,11,20,04,20,6.90
2012,11,20,04,21,6.90
2012,11,20,04,22,6.90
2012,11,20,04,23,6.90
2012,11,20,04,24,6.80
2012,11,20,04,25,6.80
2012,11,20,04,26,6.80
2012,11,20,04,27,6.80
2012,11,20,04,28,6.80
2012,11,20,04,29,6.80
2012,11,20,04,30,6.80
2012,11,20,04,31,6.80
2012,11,20,04,32,6.80
2012,11,20,04,33,6.80
2012,11,20,04,34,6.80
2012,11,20,04,35,6.80
2012,11,20,04,36,6.80
2012,11,20,04,37,6.80
2012,11,20,04,38,6.80
2012,11,20,04,39,6.80
2012,11,20,04,40,6.80
2012,11,20,04,41,6.80
2012,11,20,04,42,6.80
2012,11,20,04,43,6.80
2012,11,20,04,44,6.80
2012,11,20,04,45,6.80
2012,11,20,04,46,6.80
2012,11,20,04,47,6.80
2012,11,20,04,48,6.80
2012,11,20,04,49,6.80
2012,11,20,04,50,6.90
2012,11,20,04,51,6.90
2012,11,20,04,52,7.00
2012,11,20,04,53,7.00
2012,11,20,04,54,7.10
2012,11,20,04,55,7.10
2012,11,20,04,56,7.10
2012,11,20,04,57,7.10
2012,11,20,04,58,7.20
2012,11,20,04,59,7.20
2012,11,20,05,00,7.20
2012,11,20,05,01,7.20
2012,11,20,05,02,7.30
2012,11,20,05,03,7.30
2012,11,20,05,04,7.30
2012,11,20,05,05,7.30
2012,11,20,05,06,7.30
2012,11,20,05,07,7.30
2012,11,20,05,08,7.40
2012,11,20,05,09,7.40
2012,11,20,05,10,7.40
2012,11,20,05,11,7.40
2012,11,20,05,12,7.40
2012,11,20,05,13,7.40
2012,11,20,05,14,7.40
2012,11,20,05,15,7.40
2012,11,20,05,16,7.50
2012,11,20,05,17,7.60
2012,11,20,05,18,7.60
2012,11,20,05,19,7.60
2012,11,20,05,20,7.60
2012,11,20,05,21,7.60
2012,11,20,05,22,7.60
2012,11,20,05,23,7.60
2012,11,20,05,24,7.70
2012,11,20,05,25,7.70
2012,11,20,05,26,7.70
2012,11,20,05,27,7.70
2012,11,20,05,28,7.70
2012,11,20,05,29,7.70
2012,11,20,05,30,7.70
2012,11,20,05,31,7.70
2012,11,20,05,32,7.70
2012,11,20,05,33,7.70
2012,11,20,05,34,7.80
2012,11,20,05,35,7.80
2012,11,20,05,36,7.80
2012,11,20,05,37,7.90
2012,11,20,05,38,7.90
2012,11,20,05,39,8.00
2012,11,20,05,40,8.00
2012,11,20,05,41,8.00
2012,11,20,05,42,8.10
2012,11,20,05,43,8.10
2012,11,20,05,44,8.10
2012,11,20,05,45,8.20
2012,11,20,05,46,8.20
2012,11,20,05,47,8.20
2012,11,20,05,48,8.20
2012,11,20,05,49,8.20
2012,11,20,05,50,8.20
2012,11,20,05,51,8.20
2012,11,20,05,52,8.20
2012,11,20,05,53,8.20
2012,11,20,05,54,8.20
2012,11,20,05,55,8.20
2012,11,20,05,56,8.30
2012,11,20,05,57,8.30
2012,11,20,05,58,8.30
2012,11,20,05,59,8.30
2012,11,20,06,00,8.30
2012,11,20,06,01,8.30
2012,11,20,06,02,8.30
2012,11,20,06,03,8.30
2012,11,20,06,04,8.30
2012,11,20,06,05,8.30
2012,11,20,06,06,8.30
2012,11,20,06,07,8.30
2012,11,20,06,08,8.30
2012,11,20,06,09,8.30
2012,11,20,06,10,8.30
2012,11,20,06,11,8.30
2012,11,20,06,12,8.30
2012,11,20,06,13,8.30
2012,11,20,06,14,8.20
2012,11,20,06,15,8.20
2012,11,20,06,16,8.20
2012,11,20,06,17,8.30
2012,11,20,06,18,8.30
2012,11,20,06,19,8.30
2012,11,20,06,20,8.30
2012,11,20,06,21,8.30
2012,11,20,06,22,8.30
2012,11,20,06,23,8.30
2012,11,20,06,24,8.30
2012,11,20,06,25,8.30
2012,11,20,06,26,8.30
2012,11,20,06,27,8.30
2012,11,20,06,28,8.30
2012,11,20,06,29,8.30
2012,11,20,06,30,8.30
2012,11,20,06,31,8.30
2012,11,20,06,32,8.30
2012,11,20,06,33,8.30
2012,11,20,06,34,8.30
2012,11,20,06,35,8.40
2012,11,20,06,36,8.40
2012,11,20,06,37,8.40
2012,11,20,06,38,8.40
2012,11,20,06,39,8.50
2012,11,20,06,40,8.50
2012,11,20,06,41,8.50
2012,11,20,06,42,8.50
2012,11,20,06,43,8.50
2012,11,20,06,44,8.60
2012,11,20,06,45,8.60
2012,11,20,06,46,8.60
2012,11,20,06,47,8.60
2012,11,20,06,48,8.60
2012,11,20,06,49,8.60
2012,11,20,06,50,8.60
2012,11,20,06,51,8.60
2012,11,20,06,52,8.60
2012,11,20,06,53,8.60
2012,11,20,06,54,8.60
2012,11,20,06,55,8.60
2012,11,20,06,56,8.60
2012,11,20,06,57,8.60
2012,11,20,06,58,8.60
2012,11,20,06,59,8.50
2012,11,20,07,00,8.50
2012,11,20,07,01,8.50
2012,11,20,07,02,8.50
2012,11,20,07,03,8.50
2012,11,20,07,04,8.60
2012,11,20,07,05,8.60
2012,11,20,07,06,8.60
2012,11,20,07,07,8.60
2012,11,20,07,08,8.60
2012,11,20,07,09,8.60
2012,11,20,07,10,8.70
2012,11,20,07,11,8.60
2012,11,20,07,12,8.60
2012,11,20,07,13,8.60
2012,11,20,07,14,8.60
2012,11,20,07,15,8.70
2012,11,20,07,16,8.70
2012,11,20,07,17,8.70
2012,11,20,07,18,8.70
2012,11,20,07,19,8.70
2012,11,20,07,20,8.70
2012,11,20,07,21,8.70
2012,11,20,07,22,8.70
2012,11,20,07,23,8.70
2012,11,20,07,24,8.80
2012,11,20,07,25,8.80
2012,11,20,07,26,8.70
2012,11,20,07,27,8.70
2012,11,20,07,28,8.70
2012,11,20,07,29,8.70
2012,11,20,07,30,8.70
2012,11,20,07,31,8.70
2012,11,20,07,32,8.70
2012,11,20,07,33,8.60
2012,11,20,07,34,8.60
2012,11,20,07,35,8.60
2012,11,20,07,36,8.60
2012,11,20,07,37,8.60
2012,11,20,07,38,8.60
2012,11,20,07,39,8.50
2012,11,20,07,40,8.50
2012,11,20,07,41,8.50
2012,11,20,07,42,8.50
2012,11,20,07,43,8.50
2012,11,20,07,44,8.50
2012,11,20,07,45,8.50
2012,11,20,07,46,8.50
2012,11,20,07,47,8.50
2012,11,20,07,48,8.50
2012,11,20,07,49,8.60
2012,11,20,07,50,8.60
2012,11,20,07,51,8.60
2012,11,20,07,52,8.60
2012,11,20,07,53,8.70
2012,11,20,07,54,8.70
2012,11,20,07,55,8.70
2012,11,20,07,56,8.70
2012,11,20,07,57,8.70
2012,11,20,07,58,8.70
2012,11,20,07,59,8.70
2012,11,20,08,00,8.70
2012,11,20,08,01,8.70
2012,11,20,08,02,8.70
2012,11,20,08,03,8.70
2012,11,20,08,04,8.70
2012,11,20,08,05,8.80
2012,11,20,08,06,8.80
2012,11,20,08,07,8.80
2012,11,20,08,08,8.80
2012,11,20,08,09,8.80
2012,11,20,08,10,8.80
2012,11,20,08,11,8.90
2012,11,20,08,12,9.00
2012,11,20,08,13,9.00
2012,11,20,08,14,9.10
2012,11,20,08,15,9.10
2012,11,20,08,16,9.20
2012,11,20,08,17,9.20
2012,11,20,08,18,9.20
2012,11,20,08,19,9.20
2012,11,20,08,20,9.20
2012,11,20,08,21,9.20
2012,11,20,08,22,9.20
2012,11,20,08,23,9.30
2012,11,20,08,24,9.30
2012,11,20,08,25,9.30
2012,11,20,08,26,9.30
2012,11,20,08,27,9.30
2012,11,20,08,28,9.30
2012,11,20,08,29,9.30
2012,11,20,08,30,9.30
2012,11,20,08,31,9.30
2012,11,20,08,32,9.30
2012,11,20,08,33,9.30
2012,11,20,08,34,9.30
2012,11,20,08,35,9.30
2012,11,20,08,36,9.30
2012,11,20,08,37,9.30
2012,11,20,08,38,9.30
2012,11,20,08,39,9.30
2012,11,20,08,40,9.30
2012,11,20,08,41,9.30
2012,11,20,08,42,9.30
2012,11,20,08,43,9.20
2012,11,20,08,44,9.20
2012,11,20,08,45,9.20
2012,11,20,08,46,9.20
2012,11,20,08,47,9.10
2012,11,20,08,48,9.10
2012,11,20,08,49,9.20
2012,11,20,08,50,9.20
2012,11,20,08,51,9.20
2012,11,20,08,52,9.20
2012,11,20,08,53,9.20
2012,11,20,08,54,9.20
2012,11,20,08,55,9.20
2012,11,20,08,56,9.20
2012,11,20,08,57,9.20
2012,11,20,08,58,9.20
2012,11,20,08,59,9.20
2012,11,20,09,00,9.20
2012,11,20,09,01,9.30
2012,11,20,09,02,9.30
2012,11,20,09,03,9.30
2012,11,20,09,04,9.30
2012,11,20,09,05,9.50
2012,11,20,09,06,9.60
2012,11,20,09,07,9.60
2012,11,20,09,08,9.70
2012,11,20,09,09,9.70
2012,11,20,09,10,9.70
2012,11,20,09,11,9.80
2012,11,20,09,12,9.80
2012,11,20,09,13,9.80
2012,11,20,09,14,9.80
2012,11,20,09,15,9.80
2012,11,20,09,16,9.70
2012,11,20,09,17,9.70
2012,11,20,09,18,9.70
2012,11,20,09,19,9.70
2012,11,20,09,20,9.70
2012,11,20,09,21,9.80
2012,11,20,09,22,9.80
2012,11,20,09,23,9.80
2012,11,20,09,24,9.80
2012,11,20,09,25,9.80
2012,11,20,09,26,9.80
2012,11,20,09,27,9.80
2012,11,20,09,28,9.80
2012,11,20,09,29,9.90
2012,11,20,09,30,9.90
2012,11,20,09,31,9.90
2012,11,20,09,32,9.90
2012,11,20,09,33,9.90
2012,11,20,09,34,9.90
2012,11,20,09,35,9.90
2012,11,20,09,36,9.90
2012,11,20,09,37,9.90
2012,11,20,09,38,9.90
2012,11,20,09,39,9.90
2012,11,20,09,40,9.80
2012,11,20,09,41,9.80
2012,11,20,09,42,9.80
2012,11,20,09,43,9.80
2012,11,20,09,44,9.80
2012,11,20,09,45,9.80
2012,11,20,09,46,9.80
2012,11,20,09,47,9.80
2012,11,20,09,48,9.70
2012,11,20,09,49,9.70
2012,11,20,09,50,9.70
2012,11,20,09,51,9.70
2012,11,20,09,52,9.70
2012,11,20,09,53,9.60
2012,11,20,09,54,9.60
2012,11,20,09,55,9.50
2012,11,20,09,56,9.50
2012,11,20,09,57,9.40
2012,11,20,09,58,9.40
2012,11,20,09,59,9.40
2012,11,20,10,00,9.40
2012,11,20,10,01,9.40
2012,11,20,10,02,9.40
2012,11,20,10,03,9.40
2012,11,20,10,04,9.40
2012,11,20,10,05,9.40
2012,11,20,10,06,9.40
2012,11,20,10,07,9.40
2012,11,20,10,08,9.40
2012,11,20,10,09,9.40
2012,11,20,10,10,9.40
2012,11,20,10,11,9.40
2012,11,20,10,12,9.40
2012,11,20,10,13,9.50
2012,11,20,10,14,9.50
2012,11,20,10,15,9.50
2012,11,20,10,16,9.50
2012,11,20,10,17,9.50
2012,11,20,10,18,9.40
2012,11,20,10,19,9.30
2012,11,20,10,20,9.30
2012,11,20,10,21,9.30
2012,11,20,10,22,9.30
2012,11,20,10,23,9.30
2012,11,20,10,24,9.30
2012,11,20,10,25,9.30
2012,11,20,10,26,9.40
2012,11,20,10,27,9.40
2012,11,20,10,28,9.40
2012,11,20,10,29,9.30
2012,11,20,10,30,9.30
2012,11,20,10,31,9.30
2012,11,20,10,32,9.30
2012,11,20,10,33,9.30
2012,11,20,10,34,9.20
2012,11,20,10,35,9.20
2012,11,20,10,36,9.20
2012,11,20,10,37,9.20
2012,11,20,10,38,9.20
2012,11,20,10,39,9.20
2012,11,20,10,40,9.20
2012,11,20,10,41,9.20
2012,11,20,10,42,9.20
2012,11,20,10,43,9.20
2012,11,20,10,44,9.20
2012,11,20,10,45,9.20
2012,11,20,10,46,9.20
2012,11,20,10,47,9.20
2012,11,20,10,48,9.20
2012,11,20,10,49,9.10
2012,11,20,10,50,9.10
2012,11,20,10,51,9.10
2012,11,20,10,52,9.10
2012,11,20,10,53,9.10
2012,11,20,10,54,9.10
2012,11,20,10,55,9.00
2012,11,20,10,56,9.00
2012,11,20,10,57,8.90
2012,11,20,10,58,8.80
2012,11,20,10,59,8.80
2012,11,20,11,00,8.70
2012,11,20,11,01,8.70
2012,11,20,11,02,8.70
2012,11,20,11,03,8.70
2012,11,20,11,04,8.70
2012,11,20,11,05,8.80
2012,11,20,11,06,8.80
2012,11,20,11,07,8.80
2012,11,20,11,08,8.80
2012,11,20,11,09,8.80
2012,11,20,11,10,8.90
2012,11,20,11,11,8.80
2012,11,20,11,12,8.80
2012,11,20,11,13,8.80
2012,11,20,11,14,8.80
2012,11,20,11,15,8.80
2012,11,20,11,16,8.80
2012,11,20,11,17,8.80
2012,11,20,11,18,8.70
2012,11,20,11,19,8.70
2012,11,20,11,20,8.60
2012,11,20,11,21,8.50
2012,11,20,11,22,8.50
2012,11,20,11,23,8.40
2012,11,20,11,24,8.30
2012,11,20,11,25,8.20
2012,11,20,11,26,8.10
2012,11,20,11,27,8.00
2012,11,20,11,28,7.90
2012,11,20,11,29,7.90
2012,11,20,11,30,7.80
2012,11,20,11,31,7.80
2012,11,20,11,32,7.70
2012,11,20,11,33,7.70
2012,11,20,11,34,7.70
2012,11,20,11,35,7.60
2012,11,20,11,36,7.60
2012,11,20,11,37,7.60
2012,11,20,11,38,7.50
2012,11,20,11,39,7.50
2012,11,20,11,40,7.50
2012,11,20,11,41,7.50
2012,11,20,11,42,7.40
2012,11,20,11,43,7.40
2012,11,20,11,44,7.40
2012,11,20,11,45,7.40
2012,11,20,11,46,7.40
2012,11,20,11,47,7.30
2012,11,20,11,48,7.30
2012,11,20,11,49,7.30
2012,11,20,11,50,7.30
2012,11,20,11,51,7.20
2012,11,20,11,52,7.20
2012,11,20,11,53,7.20
2012,11,20,11,54,7.20
2012,11,20,11,55,7.20
2012,11,20,11,56,7.10
2012,11,20,11,57,7.10
2012,11,20,11,58,7.10
2012,11,20,11,59,7.10
2012,11,20,12,00,7.00
2012,11,20,12,01,7.00
2012,11,20,12,02,7.00
2012,11,20,12,03,6.90
2012,11,20,12,04,6.90
2012,11,20,12,05,6.90
2012,11,20,12,06,6.90
2012,11,20,12,07,6.80
2012,11,20,12,08,6.80
2012,11,20,12,09,6.80
2012,11,20,12,10,6.80
2012,11,20,12,11,6.70
2012,11,20,12,12,6.70
2012,11,20,12,13,6.70
2012,11,20,12,14,6.70
2012,11,20,12,15,6.70
2012,11,20,12,16,6.60
2012,11,20,12,17,6.60
2012,11,20,12,18,6.60
2012,11,20,12,19,6.60
2012,11,20,12,20,6.50
2012,11,20,12,21,6.50
2012,11,20,12,22,6.50
2012,11,20,12,23,6.50
2012,11,20,12,24,6.50
2012,11,20,12,25,6.50
2012,11,20,12,26,6.50
2012,11,20,12,27,6.40
2012,11,20,12,28,6.40
2012,11,20,12,29,6.40
2012,11,20,12,30,6.40
2012,11,20,12,31,6.40
2012,11,20,12,32,6.40
2012,11,20,12,33,6.30
2012,11,20,12,34,6.40
2012,11,20,12,35,6.40
2012,11,20,12,36,6.40
2012,11,20,12,37,6.40
2012,11,20,12,38,6.40
2012,11,20,12,39,6.40
2012,11,20,12,40,6.40
2012,11,20,12,41,6.40
2012,11,20,12,42,6.40
2012,11,20,12,43,6.40
2012,11,20,12,44,6.50
2012,11,20,12,45,6.50
2012,11,20,12,46,6.60
2012,11,20,12,47,6.60
2012,11,20,12,48,6.60
2012,11,20,12,49,6.60
2012,11,20,12,50,6.70
2012,11,20,12,51,6.80
2012,11,20,12,52,6.80
2012,11,20,12,53,6.80
2012,11,20,12,54,6.90
2012,11,20,12,55,6.90
2012,11,20,12,56,6.90
2012,11,20,12,57,7.00
2012,11,20,12,58,7.10
2012,11,20,12,59,7.20
2012,11,20,13,00,7.30
2012,11,20,13,01,7.40
2012,11,20,13,02,7.40
2012,11,20,13,03,7.50
2012,11,20,13,04,7.50
2012,11,20,13,05,7.50
2012,11,20,13,06,7.50
2012,11,20,13,07,7.50
2012,11,20,13,08,7.50
2012,11,20,13,09,7.40
2012,11,20,13,10,7.40
2012,11,20,13,11,7.30
2012,11,20,13,12,7.30
2012,11,20,13,13,7.30
2012,11,20,13,14,7.20
2012,11,20,13,15,7.20
2012,11,20,13,16,7.20
2012,11,20,13,17,7.10
2012,11,20,13,18,7.10
2012,11,20,13,19,7.10
2012,11,20,13,20,7.10
2012,11,20,13,21,7.10
2012,11,20,13,22,7.10
2012,11,20,13,23,7.10
2012,11,20,13,24,7.10
2012,11,20,13,25,7.00
2012,11,20,13,26,6.80
2012,11,20,13,27,6.80
2012,11,20,13,28,6.80
2012,11,20,13,29,6.80
2012,11,20,13,30,6.80
2012,11,20,13,31,6.80
2012,11,20,13,32,6.80
2012,11,20,13,33,6.70
2012,11,20,13,34,6.70
2012,11,20,13,35,6.70
2012,11,20,13,36,6.70
2012,11,20,13,37,6.60
2012,11,20,13,38,6.60
2012,11,20,13,39,6.50
2012,11,20,13,40,6.50
2012,11,20,13,41,6.40
2012,11,20,13,42,6.40
2012,11,20,13,43,6.40
2012,11,20,13,44,6.30
2012,11,20,13,45,6.30
2012,11,20,13,46,6.30
2012,11,20,13,47,6.30
2012,11,20,13,48,6.30
2012,11,20,13,49,6.30
2012,11,20,13,50,6.30
2012,11,20,13,51,6.30
2012,11,20,13,52,6.30
2012,11,20,13,53,6.30
2012,11,20,13,54,6.30
2012,11,20,13,55,6.30
2012,11,20,13,56,6.30
2012,11,20,13,57,6.30
2012,11,20,13,58,6.30
2012,11,20,13,59,6.30
2012,11,20,14,00,6.30
2012,11,20,14,01,6.30
2012,11,20,14,02,6.20
2012,11,20,14,03,6.20
2012,11,20,14,04,6.20
2012,11,20,14,05,6.20
2012,11,20,14,06,6.30
2012,11,20,14,07,6.30
2012,11,20,14,08,6.30
2012,11,20,14,09,6.30
2012,11,20,14,10,6.30
2012,11,20,14,11,6.30
2012,11,20,14,12,6.30
2012,11,20,14,13,6.30
2012,11,20,14,14,6.30
2012,11,20,14,15,6.30
2012,11,20,14,16,6.30
2012,11,20,14,17,6.30
2012,11,20,14,18,6.30
2012,11,20,14,19,6.30
2012,11,20,14,20,6.30
2012,11,20,14,21,6.30
2012,11,20,14,22,6.30
2012,11,20,14,23,6.30
2012,11,20,14,24,6.30
2012,11,20,14,25,6.30
2012,11,20,14,26,6.30
2012,11,20,14,27,6.30
2012,11,20,14,28,6.30
2012,11,20,14,29,6.40
2012,11,20,14,30,6.40
2012,11,20,14,31,6.40
2012,11,20,14,32,6.40
2012,11,20,14,33,6.40
2012,11,20,14,34,6.40
2012,11,20,14,35,6.40
2012,11,20,14,36,6.50
2012,11,20,14,37,6.50
2012,11,20,14,38,6.50
2012,11,20,14,39,6.60
2012,11,20,14,40,6.60
2012,11,20,14,41,6.60
2012,11,20,14,42,6.60
2012,11,20,14,43,6.60
2012,11,20,14,44,6.60
2012,11,20,14,45,6.60
2012,11,20,14,46,6.60
2012,11,20,14,47,6.60
2012,11,20,14,48,6.60
2012,11,20,14,49,6.60
2012,11,20,14,50,6.60
2012,11,20,14,51,6.60
2012,11,20,14,52,6.60
2012,11,20,14,53,6.60
2012,11,20,14,54,6.60
2012,11,20,14,55,6.60
2012,11,20,14,56,6.60
2012,11,20,14,57,6.60
2012,11,20,14,58,6.60
2012,11,20,14,59,6.60
2012,11,20,15,00,6.60
2012,11,20,15,01,6.50
2012,11,20,15,02,6.30
2012,11,20,15,03,6.20
2012,11,20,15,04,6.00
2012,11,20,15,05,5.90
2012,11,20,15,06,5.90
2012,11,20,15,07,5.80
2012,11,20,15,08,5.70
2012,11,20,15,09,5.60
2012,11,20,15,10,5.50
2012,11,20,15,11,5.50
2012,11,20,15,12,5.40
2012,11,20,15,13,5.40
2012,11,20,15,14,5.40
2012,11,20,15,15,5.40
2012,11,20,15,16,5.40
2012,11,20,15,17,5.40
2012,11,20,15,18,5.40
2012,11,20,15,19,5.50
2012,11,20,15,20,5.50
2012,11,20,15,21,5.50
2012,11,20,15,22,5.60
2012,11,20,15,23,5.60
2012,11,20,15,24,5.60
2012,11,20,15,25,5.70
2012,11,20,15,26,5.70
2012,11,20,15,27,5.70
2012,11,20,15,28,5.70
2012,11,20,15,29,5.70
2012,11,20,15,30,5.70
2012,11,20,15,31,5.70
2012,11,20,15,32,5.70
2012,11,20,15,33,5.70
2012,11,20,15,34,5.70
2012,11,20,15,35,5.70
2012,11,20,15,36,5.70
2012,11,20,15,37,5.70
2012,11,20,15,38,5.70
2012,11,20,15,39,5.70
2012,11,20,15,40,5.70
2012,11,20,15,41,5.70
2012,11,20,15,42,5.70
2012,11,20,15,43,5.60
2012,11,20,15,44,5.70
2012,11,20,15,45,5.70
2012,11,20,15,46,5.70
2012,11,20,15,47,5.70
2012,11,20,15,48,5.70
2012,11,20,15,49,5.70
2012,11,20,15,50,5.70
2012,11,20,15,51,5.70
2012,11,20,15,52,5.70
2012,11,20,15,53,5.80
2012,11,20,15,54,5.80
2012,11,20,15,55,5.80
2012,11,20,15,56,5.80
2012,11,20,15,57,5.90
2012,11,20,15,58,5.90
2012,11,20,15,59,5.90
2012,11,20,16,00,6.00
2012,11,20,16,01,6.00
2012,11,20,16,02,6.00
2012,11,20,16,03,6.10
2012,11,20,16,04,6.10
2012,11,20,16,05,6.10
2012,11,20,16,06,6.10
2012,11,20,16,07,6.10
2012,11,20,16,08,6.20
2012,11,20,16,09,6.20
2012,11,20,16,10,6.20
2012,11,20,16,11,6.20
2012,11,20,16,12,6.20
2012,11,20,16,13,6.20
2012,11,20,16,14,6.20
2012,11,20,16,15,6.20
2012,11,20,16,16,6.20
2012,11,20,16,17,6.20
2012,11,20,16,18,6.20
2012,11,20,16,19,6.20
2012,11,20,16,20,6.20
2012,11,20,16,21,6.20
2012,11,20,16,22,6.20
2012,11,20,16,23,6.20
2012,11,20,16,24,6.20
2012,11,20,16,25,6.20
2012,11,20,16,26,6.20
2012,11,20,16,27,6.20
2012,11,20,16,28,6.20
2012,11,20,16,29,6.20
2012,11,20,16,30,6.20
2012,11,20,16,31,6.20
2012,11,20,16,32,6.20
2012,11,20,16,33,6.20
2012,11,20,16,34,6.20
2012,11,20,16,35,6.20
2012,11,20,16,36,6.20
2012,11,20,16,37,6.20
2012,11,20,16,38,6.20
2012,11,20,16,39,6.10
2012,11,20,16,40,6.10
2012,11,20,16,41,6.10
2012,11,20,16,42,6.10
2012,11,20,16,43,6.10
2012,11,20,16,44,6.10
2012,11,20,16,45,6.10
2012,11,20,16,46,6.10
2012,11,20,16,47,6.10
2012,11,20,16,48,6.10
2012,11,20,16,49,6.10
2012,11,20,16,50,6.10
2012,11,20,16,51,6.20
2012,11,20,16,52,6.20
2012,11,20,16,53,6.20
2012,11,20,16,54,6.20
2012,11,20,16,55,6.20
2012,11,20,16,56,6.20
2012,11,20,16,57,6.20
2012,11,20,16,58,6.20
2012,11,20,16,59,6.20
2012,11,20,17,00,6.20
2012,11,20,17,01,6.20
2012,11,20,17,02,6.20
2012,11,20,17,03,6.20
2012,11,20,17,04,6.20
2012,11,20,17,05,6.20
2012,11,20,17,06,6.20
2012,11,20,17,07,6.20
2012,11,20,17,08,6.20
2012,11,20,17,09,6.20
2012,11,20,17,10,6.20
2012,11,20,17,11,6.20
2012,11,20,17,12,6.20
2012,11,20,17,13,6.20
2012,11,20,17,14,6.20
2012,11,20,17,15,6.20
2012,11,20,17,16,6.20
2012,11,20,17,17,6.20
2012,11,20,17,18,6.20
2012,11,20,17,19,6.20
2012,11,20,17,20,6.20
2012,11,20,17,21,6.20
2012,11,20,17,22,6.20
2012,11,20,17,23,6.10
2012,11,20,17,24,6.10
2012,11,20,17,25,6.10
2012,11,20,17,26,6.10
2012,11,20,17,27,6.10
2012,11,20,17,28,6.10
2012,11,20,17,29,6.10
2012,11,20,17,30,6.10
2012,11,20,17,31,6.10
2012,11,20,17,32,6.10
2012,11,20,17,33,6.10
2012,11,20,17,34,6.10
2012,11,20,17,35,6.10
2012,11,20,17,36,6.10
2012,11,20,17,37,6.10
2012,11,20,17,38,6.10
2012,11,20,17,39,6.10
2012,11,20,17,40,6.10
2012,11,20,17,41,6.10
2012,11,20,17,42,6.10
2012,11,20,17,43,6.10
2012,11,20,17,44,6.10
2012,11,20,17,45,6.10
2012,11,20,17,46,6.10
2012,11,20,17,47,6.10
2012,11,20,17,48,6.10
2012,11,20,17,49,6.10
2012,11,20,17,50,6.10
2012,11,20,17,51,6.10
2012,11,20,17,52,6.20
2012,11,20,17,53,6.20
2012,11,20,17,54,6.20
2012,11,20,17,55,6.20
2012,11,20,17,56,6.30
2012,11,20,17,57,6.30
2012,11,20,17,58,6.40
2012,11,20,17,59,6.40
2012,11,20,18,00,6.40
2012,11,20,18,01,6.40
2012,11,20,18,02,6.50
2012,11,20,18,03,6.50
2012,11,20,18,04,6.50
2012,11,20,18,05,6.50
2012,11,20,18,06,6.50